Edenton, NC

4:43 AM EDT on April 25, 2017 (GMT -0400)
Northeastern Regional

Weather History for KEDE - December, 2013

Change the Weather History Date:

Saturday, December 14, 2013

  Actual Average Record
Temperature  
Mean Temperature 47 °F -  
Max Temperature 60 °F 56 °F 73 °F (2001)
Min Temperature 34 °F 37 °F 16 °F (1960)
Degree Days  
Heating Degree Days 18    
Moisture  
Dew Point 43 °F    
Average Humidity 82    
Maximum Humidity 100    
Minimum Humidity 52    
Precipitation  
Precipitation 1.04 in - - ()
Sea Level Pressure  
Sea Level Pressure 30.11 in    
Wind  
Wind Speed 4 mph (SE)    
Max Wind Speed 25 mph    
Max Gust Speed 32 mph    
Visibility 9 miles    
Events Rain    
Averages and records for this station are not official NWS values.
T = Trace of Precipitation, MM = Missing Value Source: NWS Daily Summary

Daily Weather History Graph

Daily Weather History Graph

Search for Another Location

Airport or City:

Trip Planner

Search our weather history database for the weather conditions in past years. The results will help you decide how hot, cold, wet, or windy it might be!

Date:

Astronomy

Dec. 14, 2013 Rise Set
Actual Time 7:09 AM EST 4:53 PM EST
Civil Twilight 6:40 AM EST 5:21 PM EST
Nautical Twilight 6:08 AM EST 5:53 PM EST
Astronomical Twilight 5:37 AM EST 6:24 PM EST
Moon 3:10 PM EST (12/14) 4:31 AM EST (12/14)
Length of Visible Light 10h 41m
Length of Day
9h 43m
Waxing Gibbous, 93% of the Moon is Illuminated
Dec 14
Waxing Gibbous
Dec 17
Full
Dec 25
Last Quarter
Jan 1
New
Jan 7
First Quarter

Hourly Weather History & Observations

Time (EST) Temp. Windchill Dew Point Humidity Pressure Visibility Wind Dir Wind Speed Gust Speed Precip Events Conditions
12:15 AM 36.3 °F - 31.5 °F 83% 30.33 in 10.0 mi Calm Calm - N/A   Clear
12:35 AM 34.9 °F - 32.0 °F 89% 30.33 in 10.0 mi Calm Calm - N/A   Clear
12:55 AM 36.5 °F - 31.8 °F 83% 30.33 in 10.0 mi Calm Calm - N/A   Clear
1:15 AM 34.0 °F - 30.7 °F 88% 30.32 in 10.0 mi Calm Calm - N/A   Clear
1:35 AM 35.1 °F - 32.0 °F 89% 30.32 in 10.0 mi Calm Calm - N/A   Clear
1:55 AM 35.1 °F - 32.0 °F 89% 30.33 in 10.0 mi Calm Calm - N/A   Clear
2:15 AM 35.4 °F - 31.6 °F 86% 30.34 in 10.0 mi Calm Calm - N/A   Clear
2:35 AM 36.5 °F - 32.2 °F 84% 30.34 in 10.0 mi Calm Calm - N/A   Clear
2:55 AM 35.2 °F - 32.0 °F 88% 30.34 in 10.0 mi Calm Calm - N/A   Clear
3:15 AM 35.4 °F - 32.0 °F 87% 30.33 in 10.0 mi Calm Calm - N/A   Clear
3:35 AM 34.9 °F - 32.5 °F 91% 30.33 in 10.0 mi Calm Calm - N/A   Clear
3:55 AM 36.3 °F 33.7 °F 33.8 °F 91% 30.32 in 10.0 mi SSE 3.5 mph - N/A   Clear
4:15 AM 36.1 °F - 32.7 °F 87% 30.31 in 10.0 mi Calm Calm - N/A   Clear
4:35 AM 37.0 °F - 33.3 °F 86% 30.33 in 10.0 mi Calm Calm - N/A   Clear
4:55 AM 36.0 °F - 32.9 °F 89% 30.33 in 10.0 mi Calm Calm - N/A   Clear
5:15 AM 35.6 °F - 33.1 °F 91% 30.32 in 10.0 mi Calm Calm - N/A   Clear
5:35 AM 36.0 °F - 33.8 °F 92% 30.32 in 10.0 mi Calm Calm - N/A   Clear
5:55 AM 36.7 °F - 34.3 °F 91% 30.32 in 10.0 mi Calm Calm - N/A   Clear
6:15 AM 36.9 °F - 34.0 °F 89% 30.31 in 10.0 mi Calm Calm - N/A   Clear
6:35 AM 38.3 °F - 34.5 °F 86% 30.31 in 10.0 mi Calm Calm - N/A   Clear
6:55 AM 39.2 °F - 34.9 °F 84% 30.31 in 10.0 mi Calm Calm - N/A   Scattered Clouds
7:15 AM 38.8 °F - 35.2 °F 87% 30.32 in 10.0 mi Calm Calm - N/A   Scattered Clouds
7:35 AM 39.7 °F - 35.6 °F 85% 30.33 in 10.0 mi Calm Calm - N/A   Mostly Cloudy
7:55 AM 39.9 °F 36.7 °F 36.7 °F 88% 30.32 in 10.0 mi East 4.6 mph - N/A   Mostly Cloudy
8:15 AM 42.8 °F 40.1 °F 37.9 °F 83% 30.33 in 10.0 mi East 4.6 mph - N/A   Mostly Cloudy
8:35 AM 43.7 °F 39.7 °F 37.9 °F 80% 30.31 in 10.0 mi East 6.9 mph - N/A   Mostly Cloudy
8:55 AM 44.6 °F 39.2 °F 37.4 °F 76% 30.31 in 10.0 mi ESE 10.4 mph - N/A   Light Drizzle
9:15 AM 45.5 °F 40.8 °F 36.1 °F 70% 30.31 in 10.0 mi ESE 9.2 mph - N/A   Mostly Cloudy
9:35 AM 46.0 °F 40.6 °F 32.7 °F 60% 30.31 in 10.0 mi SE 11.5 mph - N/A   Overcast
9:55 AM 46.4 °F 41.5 °F 32.0 °F 57% 30.31 in 10.0 mi SE 10.4 mph 16.1 mph N/A   Overcast
10:15 AM 46.8 °F - 30.7 °F 54% 30.31 in 10.0 mi SE 8.1 mph - N/A   Overcast
10:35 AM 47.3 °F - 30.6 °F 52% 30.29 in 10.0 mi ESE 10.4 mph - N/A   Overcast
10:55 AM 48.2 °F - 31.6 °F 53% 30.27 in 10.0 mi ESE 11.5 mph 16.1 mph N/A   Mostly Cloudy
11:15 AM 48.2 °F - 32.0 °F 54% 30.24 in 10.0 mi ESE 9.2 mph - N/A   Scattered Clouds
11:35 AM 48.2 °F - 32.9 °F 55% 30.20 in 10.0 mi ESE 10.4 mph - N/A   Scattered Clouds
11:55 AM 49.1 °F - 34.7 °F 58% 30.19 in 10.0 mi ESE 10.4 mph - N/A   Scattered Clouds
12:15 PM 49.5 °F - 35.4 °F 58% 30.17 in 10.0 mi ESE 11.5 mph - N/A   Mostly Cloudy
12:35 PM 50.0 °F - 36.9 °F 61% 30.14 in 10.0 mi ESE 9.2 mph - N/A   Overcast
12:55 PM 51.1 °F - 38.3 °F 62% 30.12 in 10.0 mi ESE 10.4 mph - N/A   Mostly Cloudy
1:15 PM 51.1 °F - 39.0 °F 63% 30.12 in 10.0 mi East 8.1 mph - N/A   Mostly Cloudy
1:35 PM 51.3 °F - 39.7 °F 65% 30.12 in 10.0 mi East 8.1 mph - N/A   Overcast
1:55 PM 50.9 °F - 41.5 °F 70% 30.09 in 10.0 mi East 5.8 mph - N/A   Light Drizzle
2:15 PM 49.8 °F - 43.2 °F 78% 30.07 in 10.0 mi East 8.1 mph - N/A   Light Drizzle
2:35 PM 50.0 °F - 43.3 °F 78% 30.05 in 10.0 mi East 8.1 mph - N/A   Overcast
2:55 PM 51.1 °F - 43.7 °F 76% 30.01 in 10.0 mi East 9.2 mph - N/A   Mostly Cloudy
3:15 PM 52.3 °F - 44.6 °F 75% 29.99 in 10.0 mi East 10.4 mph - N/A   Scattered Clouds
3:35 PM 52.9 °F - 45.3 °F 75% 29.97 in 10.0 mi East 9.2 mph - N/A   Mostly Cloudy
3:55 PM 54.9 °F - 47.3 °F 76% 29.96 in 10.0 mi SE 11.5 mph 16.1 mph N/A   Overcast
4:15 PM 55.2 °F - 48.2 °F 77% 29.95 in 10.0 mi ESE 6.9 mph - N/A   Overcast
4:35 PM 54.9 °F - 48.7 °F 80% 29.93 in 10.0 mi ESE 5.8 mph - N/A   Overcast
4:55 PM 55.9 °F - 50.5 °F 82% 29.92 in 10.0 mi SE 4.6 mph - N/A   Overcast
5:15 PM 58.3 °F - 52.7 °F 82% 29.90 in 10.0 mi SSE 10.4 mph - N/A   Overcast
5:35 PM 60.3 °F - 53.6 °F 79% 29.90 in 10.0 mi SSE 10.4 mph 20.7 mph N/A Rain Light Rain
5:55 PM 59.9 °F - 54.5 °F 82% 29.90 in 10.0 mi SSE 6.9 mph - N/A Rain Light Rain
6:15 PM 60.1 °F - 55.4 °F 85% 29.89 in 7.0 mi SSE 6.9 mph - 0.02 in Rain Rain
6:35 PM 60.3 °F - 56.3 °F 87% 29.87 in 5.0 mi South 8.1 mph - 0.07 in Rain Rain
6:55 PM 60.4 °F - 57.4 °F 90% 29.85 in 5.0 mi SSE 13.8 mph 21.9 mph 0.15 in Rain Rain
7:15 PM 59.9 °F - 58.8 °F 96% 29.82 in 4.0 mi South 25.3 mph 32.2 mph 0.06 in Rain Rain
7:35 PM 59.2 °F - 58.8 °F 99% 29.83 in 5.0 mi South 18.4 mph 26.5 mph 0.10 in Rain Light Rain
7:55 PM 59.2 °F - 59.0 °F 99% 29.81 in 4.0 mi South 16.1 mph 23.0 mph 0.16 in Rain Rain
8:15 PM 59.2 °F - 59.2 °F 100% 29.80 in 4.0 mi SSE 17.3 mph 23.0 mph 0.07 in Rain Rain
8:35 PM 59.2 °F - 59.2 °F 100% 29.77 in 4.0 mi SSE 18.4 mph 25.3 mph 0.16 in Rain Rain
8:55 PM 59.9 °F - 59.9 °F 100% 29.76 in 4.0 mi South 19.6 mph 28.8 mph 0.23 in Rain Rain
9:15 PM 59.2 °F - 59.2 °F 100% 29.81 in 2.5 mi WSW 9.2 mph 28.8 mph 0.25 in Rain Heavy Rain
9:35 PM 59.9 °F - 59.9 °F 100% 29.79 in 4.0 mi WSW 4.6 mph - 0.42 in Rain Rain
9:55 PM 59.4 °F - 59.4 °F 100% 29.76 in 7.0 mi Calm Calm - 0.44 in Rain Light Rain
10:15 PM 59.0 °F - 59.0 °F 100% 29.72 in 10.0 mi South 8.1 mph - 0.01 in   Drizzle
10:35 PM 59.0 °F - 59.0 °F 100% 29.76 in 10.0 mi SSW 6.9 mph - 0.01 in   Mostly Cloudy
10:55 PM 59.0 °F - 59.0 °F 100% 29.76 in 10.0 mi SSW 8.1 mph - 0.01 in Rain Light Rain
11:15 PM 58.6 °F - 58.6 °F 100% 29.76 in 10.0 mi SW 5.8 mph - 0.01 in Rain Light Rain
11:35 PM 58.5 °F - 58.5 °F 100% 29.75 in 10.0 mi SSW 6.9 mph - 0.04 in Rain Light Rain
11:55 PM 59.0 °F - 59.0 °F 100% 29.74 in 10.0 mi SW 6.9 mph - 0.05 in Rain Light Rain